Total_Precipitation_Accumulation
0.09 0.17 0.20 0.22 0.21 0.18 0.14 0.12 0.18 0.26 0.42 0.57 0.68 0.91 0.77 0.74 0.81 0.87 0.74 0.65 0.53 0.55 0.63 0.73 0.79 0.80 0.85 0.94 1.02 1.17 1.18 1.15 1.20 1.27 1.29 1.33 1.34 1.34 1.37 1.43 1.45 1.62 1.65 1.72
0.11 0.14 0.14 0.16 0.18 0.16 0.12 0.10 0.10 0.20 0.42 0.62 0.71 0.78 0.74 0.61 0.63 0.83 0.73 0.62 0.60 0.66 0.73 0.73 0.72 0.72 0.75 0.76 0.87 1.05 1.16 1.25 1.32 1.31 1.24 1.29 1.30 1.28 1.31 1.42 1.52 1.61 1.66 1.77
0.21 0.17 0.19 0.26 0.21 0.18 0.15 0.13 0.14 0.26 0.42 0.59 0.72 0.65 0.70 0.64 0.58 0.60 0.58 0.55 0.63 0.70 0.74 0.74 0.73 0.69 0.69 0.70 0.81 1.09 1.18 1.21 1.36 1.44 1.35 1.40 1.43 1.43 1.44 1.47 1.59 1.66 1.79 1.85
0.28 0.31 0.38 0.30 0.25 0.23 0.26 0.27 0.25 0.28 0.40 0.62 0.80 0.72 0.67 0.68 0.68 0.61 0.49 0.53 0.62 0.64 0.65 0.68 0.70 0.72 0.71 0.73 0.80 1.04 1.21 1.29 1.52 1.67 1.57 1.58 1.59 1.62 1.67 1.73 1.76 1.87 1.89 1.78
0.42 0.44 0.47 0.40 0.37 0.38 0.47 0.57 0.48 0.49 0.62 0.68 0.67 0.69 0.75 0.71 0.65 0.60 0.58 0.62 0.64 0.68 0.71 0.77 0.85 0.87 0.87 0.96 1.06 1.20 1.33 1.47 1.70 1.90 1.95 1.92 1.85 1.94 2.01 2.00 1.98 2.03 2.06 2.00
0.58 0.64 0.73 0.68 0.55 0.50 0.64 1.03 0.84 0.68 0.71 0.72 0.73 0.91 0.93 0.68 0.60 0.57 0.60 0.67 0.79 0.90 0.90 0.94 1.01 1.00 1.04 1.15 1.35 1.49 1.53 1.56 1.71 1.90 1.97 1.95 1.95 2.14 2.27 2.23 2.16 2.19 2.07 1.94
0.65 0.75 0.76 0.68 0.60 0.64 1.13 1.50 1.07 0.92 0.93 0.97 0.97 0.93 0.81 0.74 0.74 0.66 0.63 0.71 0.77 0.80 0.93 1.05 1.14 1.20 1.32 1.36 1.44 1.49 1.53 1.57 1.69 1.90 2.18 2.13 2.15 2.24 2.32 2.33 2.34 2.35 2.25 2.14
0.78 1.01 1.14 0.74 0.65 1.02 1.38 1.26 1.30 1.26 1.24 1.19 1.04 0.86 0.75 0.75 0.79 0.71 0.68 0.76 0.76 0.76 0.87 1.05 1.25 1.43 1.49 1.47 1.50 1.60 1.61 1.60 1.69 1.94 2.05 2.10 2.23 2.27 2.36 2.45 2.43 2.39 2.38 2.24
1.03 1.25 1.15 0.91 0.98 1.03 1.12 1.24 1.29 1.22 1.23 1.20 1.14 1.02 0.91 0.87 0.83 0.80 0.86 0.85 0.86 0.87 0.94 1.06 1.23 1.44 1.60 1.62 1.62 1.58 1.55 1.52 1.61 1.76 1.86 2.00 2.09 2.02 2.07 2.18 2.17 2.20 2.22 2.17
1.44 1.43 1.26 1.10 1.00 1.02 1.00 1.06 1.06 1.02 0.98 0.97 0.96 0.94 0.91 0.92 0.95 0.98 1.04 1.01 1.01 1.05 1.08 1.13 1.21 1.38 1.54 1.54 1.57 1.56 1.48 1.43 1.54 1.75 1.86 1.93 1.99 1.97 2.02 2.08 2.13 2.19 2.21 2.14
1.81 1.77 1.56 1.45 1.25 1.20 1.07 1.05 1.04 0.98 0.95 0.90 0.81 0.81 0.82 0.79 0.82 0.89 0.98 1.02 1.02 1.06 1.11 1.11 1.16 1.36 1.50 1.51 1.56 1.62 1.58 1.53 1.61 1.73 1.82 1.96 2.02 2.05 2.05 2.05 2.02 2.02 2.01 1.95
1.95 1.77 1.64 1.63 1.33 1.27 1.33 1.21 1.09 1.07 1.03 0.95 0.82 0.78 0.78 0.76 0.76 0.80 0.90 1.03 1.06 1.13 1.15 1.12 1.16 1.28 1.40 1.56 1.71 1.75 1.69 1.65 1.61 1.59 1.67 1.74 1.79 1.74 1.68 1.63 1.61 1.55 1.53 1.44
1.34 1.40 1.48 1.60 1.44 1.27 1.26 1.20 1.12 1.11 1.07 0.98 0.89 0.82 0.72 0.67 0.73 0.79 0.89 1.00 1.12 1.22 1.18 1.14 1.18 1.28 1.36 1.49 1.66 1.76 1.71 1.60 1.51 1.45 1.44 1.45 1.54 1.62 1.65 1.55 1.46 1.35 1.28 1.18
1.34 1.43 1.52 1.49 1.52 1.47 1.29 1.20 1.12 1.07 1.03 0.95 0.89 0.84 0.77 0.75 0.75 0.84 0.98 1.06 1.07 1.13 1.14 1.13 1.14 1.21 1.30 1.46 1.64 1.71 1.67 1.57 1.41 1.33 1.32 1.29 1.35 1.44 1.50 1.53 1.49 1.31 1.15 1.05
1.53 1.46 1.44 1.39 1.38 1.46 1.43 1.37 1.26 1.15 1.04 1.00 0.96 0.94 0.88 0.83 0.81 0.87 0.96 1.12 1.24 1.25 1.17 1.15 1.18 1.19 1.24 1.39 1.52 1.62 1.63 1.53 1.40 1.36 1.35 1.25 1.17 1.20 1.25 1.29 1.36 1.31 1.15 1.07
1.43 1.34 1.33 1.39 1.43 1.37 1.31 1.35 1.32 1.20 0.99 0.93 0.96 0.95 0.89 0.86 0.89 0.95 1.02 1.17 1.43 1.59 1.47 1.30 1.22 1.18 1.21 1.34 1.42 1.39 1.38 1.34 1.29 1.29 1.28 1.22 1.17 1.19 1.26 1.33 1.38 1.34 1.21 1.09
1.25 1.18 1.17 1.24 1.31 1.35 1.31 1.22 1.16 1.09 0.99 0.94 0.93 0.91 0.89 0.92 1.01 1.16 1.24 1.30 1.36 1.37 1.38 1.39 1.30 1.21 1.25 1.36 1.42 1.33 1.20 1.15 1.10 1.09 1.11 1.10 1.10 1.17 1.30 1.37 1.39 1.29 1.11 0.99
0.95 0.96 1.01 1.05 1.09 1.22 1.25 1.11 1.00 0.96 0.95 0.96 0.93 0.93 0.95 1.01 1.21 1.44 1.47 1.41 1.38 1.26 1.17 1.21 1.23 1.23 1.32 1.40 1.46 1.44 1.27 1.12 0.99 0.96 1.00 1.02 1.08 1.18 1.25 1.24 1.17 1.11 1.01 0.93
0.74 0.78 0.83 0.87 0.91 0.96 1.01 1.00 1.02 0.96 0.89 0.91 0.97 1.02 1.07 1.11 1.29 1.52 1.58 1.60 1.58 1.41 1.15 1.04 1.09 1.12 1.21 1.29 1.37 1.33 1.13 0.93 0.78 0.73 0.77 0.88 1.03 1.19 1.22 1.14 1.03 0.98 0.96 0.92
0.70 0.68 0.69 0.72 0.74 0.78 0.82 0.82 0.84 0.88 0.85 0.90 0.99 1.04 1.14 1.21 1.37 1.56 1.65 1.69 1.58 1.39 1.18 1.01 0.94 0.93 0.97 1.11 1.22 1.18 1.04 0.86 0.71 0.65 0.68 0.78 0.95 1.14 1.15 1.04 0.99 1.01 1.01 1.00
0.70 0.67 0.66 0.68 0.71 0.69 0.71 0.73 0.77 0.82 0.86 0.90 1.02 1.16 1.22 1.22 1.33 1.57 1.79 1.79 1.49 1.19 1.03 1.00 0.88 0.80 0.84 1.01 1.05 0.96 0.90 0.83 0.73 0.70 0.75 0.88 1.05 1.14 1.07 0.99 0.96 0.95 0.95 1.02
0.75 0.72 0.67 0.67 0.73 0.74 0.74 0.80 0.85 0.88 0.92 0.92 1.00 1.13 1.20 1.32 1.31 1.31 1.41 1.58 1.45 1.21 0.94 0.80 0.77 0.80 0.87 0.97 0.94 0.87 0.83 0.81 0.76 0.74 0.83 0.98 1.07 1.06 0.97 0.93 0.98 0.95 0.91 0.95
0.79 0.75 0.70 0.67 0.72 0.78 0.77 0.81 0.86 0.92 1.02 1.02 1.01 1.04 1.17 1.29 1.28 1.34 1.29 1.18 1.18 1.14 0.92 0.77 0.73 0.78 0.85 0.88 0.88 0.83 0.84 0.81 0.76 0.75 0.81 0.90 0.96 0.97 0.96 0.97 0.99 0.97 0.96 0.95
0.79 0.77 0.76 0.74 0.73 0.81 0.87 0.85 0.84 0.89 0.97 0.92 0.88 0.87 1.03 1.17 1.12 1.05 1.12 1.18 1.13 1.08 0.93 0.86 0.79 0.75 0.78 0.76 0.79 0.83 0.88 0.82 0.75 0.71 0.72 0.79 0.86 0.93 1.02 1.05 1.05 1.00 0.95 0.92
0.80 0.78 0.76 0.79 0.86 0.93 0.92 0.90 0.94 0.96 1.00 0.94 0.85 0.80 0.87 1.06 1.14 1.00 0.99 1.03 1.04 0.99 0.90 0.88 0.85 0.88 0.86 0.86 0.84 0.84 0.79 0.70 0.66 0.64 0.69 0.80 0.86 0.92 0.97 0.97 0.92 0.91 0.91 0.92
0.91 0.85 0.82 0.83 0.87 0.92 0.94 1.06 1.16 1.16 1.20 1.16 0.97 0.81 0.81 0.90 0.94 0.96 0.99 0.98 0.99 1.00 0.87 0.82 0.80 0.86 0.90 0.95 0.92 0.81 0.71 0.67 0.67 0.68 0.74 0.81 0.85 0.90 0.94 0.94 0.88 0.90 0.91 0.92
0.88 0.85 0.83 0.85 0.87 0.86 0.88 0.99 1.10 1.20 1.33 1.34 1.12 0.84 0.79 0.84 0.90 0.95 0.99 1.03 1.08 1.07 0.99 0.86 0.80 0.82 0.86 0.89 0.90 0.84 0.77 0.71 0.70 0.73 0.75 0.74 0.77 0.87 0.95 0.99 0.92 0.91 0.93 0.91